User: anonymous   Login
Location: Unspecified
(0.0000°N, 0.0000°E)
Time: 20:09:31
(UTC+00:00)
Language:

STARLINK-33885 - Orbit

View from above orbital plane
View from above orbital plane
View from above satellite
View from above satellite

Ground track
Ground track

The orbit is defined by the following mean orbital elements,

1 63886U          26145.11170475 +.00000000 +00000-0 +58481-3 0 00007
2 63886  70.0018  41.6417 0002696 271.8027  88.2824 14.98353561    09
Epoch (UTC): 25 May 2026 02:40:51
Eccentricity: 0.0002696
inclination: 70.0018°
perigee height: 570 km
apogee height: 574 km
right ascension of ascending node: 41.6417°
argument of perigee: 271.8027°
revolutions per day: 14.98353561
mean anomaly at epoch: 88.2824°

The dashed part of the orbit path shows where the satellite is in the earth's shadow,  

DLR